Historyczne dane pomiarowe

Dodano dane terminowe – wersja testowa.

Dane z okresu 1951-2019

Wersja bazy: 1.34 [2019-03-16, lista zmian], aktualizacja planowana na 2019-04-15

Dane meteo z obszaru Polski uzyskane na podstawie danych udostępnionych przez Instytut Meteorologii i Gospodarki Wodnej – Państwowy Instytut Badawczy.

 

Wybierz Datę:    

       

TemperaturaWilgotnośćWiatrCiśnienieOpadyŚniegCzas trwania zjawisk
 Stacja t tx tn tng RH VA  wxwx mslp ppp RRR   cm mm wxwxwxwxwxwxwx
1956-11-09 -8.8 -3.6-11.1- 95.3- 4.3 0.3---- 0.0------------
1956-11-08 -4.2 -1.6 -8.2- 86.8- 2.7 2.3---- 0.0------------
1956-11-07 -0.4 1.8 -2.0- 81.3- 7.0 6.0---- 0.0------------
1956-11-06 1.7 2.4 0.3- 80.3- 4.3 3.7---- 1.5------------
1956-11-05 1.0 2.4 -7.9--- 8.0 4.3---- 3.6------------
1956-11-04 -3.6 2.1 -7.9--- 0.7 1.0---- 0.2------------
1956-11-03 -0.8 1.9 -3.5- 94.3- 5.0 1.7---- 0.0------------
1956-11-02 0.4 4.9 -5.8- 80.3- 6.3 1.7---- 0.0------------
1956-11-01 -1.6 5.4-10.1- 84.8- 0.0 0.3---- 0.0------------
1956-10-31 -4.0 3.7 -6.3- 91.8- 1.0 1.0---- 0.0------------
1956-10-30 4.4 6.3 3.4- 90.0- 3.0 1.7---- 0.0------------
1956-10-29 5.5 8.8 2.6- 73.5- 3.3 1.3---- 1.5------------
1956-10-28 9.6 13.4 5.0- 90.8- 5.3 0.7---- 6.5------------
1956-10-27 8.3 14.8 1.1- 86.3- 8.0 1.0---- 1.3------------
1956-10-26 8.0 15.9 2.1- 90.3- 3.3 0.7---- 0.0------------
1956-10-25 6.4 14.9 0.0- 86.8- 0.0 0.3---- 0.0------------
1956-10-24 8.3 15.0 4.6- 92.0- 2.7 0.7---- 0.0------------
1956-10-23 9.8 17.4 2.9- 92.0- 8.0 0.7---- 0.0------------
1956-10-22 10.4 18.5 3.5- 92.5- 3.3 0.7---- 0.0------------
1956-10-21 10.5 15.9 7.5- 94.0- 5.3 0.0---- 0.8------------
1956-10-20 10.2 11.8 4.4- 89.5- 8.0 1.0---- 3.2------------
1956-10-19 8.5 12.1 1.6- 77.5- 8.0 1.7---- 0.0------------
1956-10-18 6.8 13.6 -1.8- 77.0- 5.7 1.3---- 0.0------------
1956-10-17 2.8 11.1 -3.0- 87.8- 0.0 0.7---- 0.0------------
1956-10-16 3.1 10.3 -2.3- 89.5- 0.3 0.7---- 0.0------------
1956-10-15 3.6 9.3 -0.3- 89.3- 1.3 1.0---- 0.0------------
1956-10-14 5.3 11.4 1.1- 90.5- 6.7 4.0---- 5.6------------
1956-10-13 5.2 8.3 0.2- 83.5- 8.0 3.0---- 0.0------------
1956-10-12 7.5 12.1 -0.4- 82.3- 7.3 1.7---- 0.0------------
1956-10-11 6.9 11.8 -0.5- 84.0- 8.0 1.7---- 0.0------------
1956-10-10 5.8 13.8 -0.9- 87.3- 8.0 1.0---- 0.0------------
1956-10-09 5.8 10.3 -1.1- 84.0- 8.0 1.0---- 0.0------------
1956-10-08 4.5 9.8 -1.7- 87.8- 4.7 0.7---- 0.0------------
1956-10-07 5.7 8.3 0.6- 74.3- 5.3 0.7---- 1.2-- 1---------
1956-10-06 4.2 6.8 3.5- 96.0- 8.0 2.3---- 23.2------------
1956-10-05 9.4 17.4 5.6- 80.0- 8.0 1.7---- 9.8------------
1956-10-04 12.1 16.1 10.6- 86.5- 8.0 1.0---- 6.8------------
1956-10-03 17.4 22.7 15.1- 65.5- 7.7 2.0---- 0.0------------
1956-10-02 15.4 22.4 6.0- 84.5- 4.3 1.3---- 0.0------------
1956-10-01 16.5 23.7 8.1- 78.8- 2.7 0.7---- 0.0------------
1956-09-30 14.7 20.9 9.9- 85.5- 6.0 0.7---- 0.0------------
1956-09-29 13.7 21.3 4.4- 84.0- 5.3 1.0---- 0.0------------
1956-09-28 10.5 18.2 4.1- 86.0- 7.3 1.3---- 0.0------------
1956-09-27 10.0 20.9 1.3- 76.5- 5.3 1.7---- 1.3------------
1956-09-26 8.4 20.3 1.2- 78.3- 0.0 3.0---- 0.0------------
1956-09-25 9.1 19.9 1.6- 84.0- 0.0 0.7---- 0.0------------
1956-09-24 8.6 16.8 1.9- 77.8- 1.3 1.0---- 0.0------------
1956-09-23 9.3 17.9 1.6- 84.5- 0.0 2.0---- 0.0------------
1956-09-22 8.8 20.7 2.0- 83.0- 0.0 0.7---- 0.0------------
1956-09-21 9.8 19.4 2.6- 84.8- 0.0 0.7---- 0.0------------
1956-09-20 9.0 14.8 -0.7- 73.5- 3.7 1.0---- 0.0------------
1956-09-19 6.4 14.3 0.7- 87.8- 1.0 0.7---- 0.0------------
1956-09-18 7.1 11.3 4.7- 88.5- 6.3 0.7---- 0.0------------
1956-09-17 8.9 13.8 8.1- 88.0- 8.0 0.7---- 10.2------------
1956-09-16 13.2 17.3 7.1- 88.8- 8.0 1.0---- 0.0------------
1956-09-15 12.1 16.9 5.1- 85.3- 8.0 1.0---- 0.0------------
1956-09-14 9.8 13.8 5.6- 73.0- 8.0 0.7---- 0.0------------
1956-09-13 9.9 11.9 7.1- 88.5- 7.7 2.3---- 7.9------------
1956-09-12 12.1 14.8 10.6- 84.5- 8.0 1.3---- 0.0------------
1956-09-11 15.7 20.4 12.1- 86.0- 7.3 1.7---- 3.7------------
259.8 ms

 

Źródłem pochodzenia danych jest Instytut Meteorologii i Gospodarki Wodnej – Państwowy Instytut Badawczy. Dane Instytutu Meteorologii i Gospodarki Wodnej – Państwowego Instytutu Badawczego zostały przetworzone.

Dane źródłowe można odnaleźć na stronie https://dane.imgw.pl